Regional Weather Roundup
Issued by NWS Glasgow, MT

Home | Current Version | Previous Version | Text Only | Print | Product List | Glossary On
Versions: 1 2 3 4 5 6 7 8 9 10 11 12 13 14 15 16 17 18 19 20 21 22 23 24 25 26 27 28 29 30 31 32 33 34 35 36 37 38 39 40 41 42 43 44 45 46 47 48 49 50
000
ASUS45 KGGW 050415
RWRGGW
HOURLY WEATHER ROUNDUP FOR NORTHEAST MONTANA
NATIONAL WEATHER SERVICE GLASGOW MONTANA
1000 PM MDT MON MAY 04 2015

NOTE: "FAIR" INDICATES FEW OR NO CLOUDS BELOW 12,000 FEET WITH NO
SIGNIFICANT WEATHER AND/OR OBSTRUCTIONS TO VISISBILITY.

NORTHEAST MONTANA


CITY           SKY/WX    TMP DP  RH WIND       PRES   REMARKS
GLASGOW        CLEAR     60  38  43 SE20      29.88R
WOLF POINT     CLEAR     59  35  40 E9        29.94S
JORDAN           N/A     59  40  49 SE15      29.88
WINNETT          N/A     61  45  55 E8G22       N/A
SIDNEY         CLEAR     54  34  47 SE12      30.02F
GLENDIVE       CLEAR     54  32  43 S14G21    30.01S
MALTA            N/A     65  44  46 SE12G20     N/A

FORT PECK REPORTS


CITY           SKY/WX    TMP DP  RH WIND       PRES   REMARKS
FORT PECK        N/A     60  41  49 E24         N/A
THE PINES        N/A     60  39  45 SE12G20     N/A

SOUTHEAST MONTANA


CITY           SKY/WX    TMP DP  RH WIND       PRES   REMARKS
BILLINGS       CLEAR     59  39  47 CALM      29.87R
MILES CITY     CLEAR     56  36  47 SE16G28   29.93R
BAKER          CLEAR     47  32  56 SE12      30.03S
LIVINGSTON     CLEAR     57  40  52 SE9       29.87R

CENTRAL MONTANA


CITY           SKY/WX    TMP DP  RH WIND       PRES   REMARKS
HAVRE          CLEAR     58  41  53 SE6       29.75R
LEWISTOWN      CLEAR     55  40  56 SE9       29.87R
GREAT FALLS    CLEAR     58  18  21 NW6       29.78R
CUT BANK       CLEAR     51  21  30 NW9       29.80R
HELENA         PTCLDY    64  30  27 W8        29.80S
BUTTE          CLOUDY    54  27  35 SW7       29.89R
BOZEMAN        CLEAR     53  37  54 SE5       29.84R

WESTERN MONTANA


CITY           SKY/WX    TMP DP  RH WIND       PRES   REMARKS
MISSOULA       MOCLDY    62  33  33 SW3       29.78R
KALISPELL      NOT AVBL

NORTH DAKOTA


CITY           SKY/WX    TMP DP  RH WIND       PRES   REMARKS
WILLISTON      CLEAR     57  38  48 S9        30.05R
DICKINSON      CLEAR     46  32  58 SE14      30.07F
MINOT          MOCLDY    58  29  33 S9        30.09R
BISMARCK       MOCLDY    49  30  48 SE6       30.13S

SOUTHERN SASKATCHEWAN


CITY           SKY/WX    TMP DP  RH WIND       PRES   REMARKS
REGINA         MOCLDY    57  34  41 SE16      29.92S
MOOSE JAW      LGT RAIN  59  50  72 S22G31    29.88F
ESTEVAN        CLEAR     55  39  54 S14G21    30.04R
SWIFT CURRENT  CLOUDY    57  46  67 E6        29.80S




USA.gov is the U.S. government's official web portal to all federal, state and local government web resources and services.